Regional Weather Roundup
Issued by NWS

Home | Current Version | Previous Version | Text Only | Print | Product List | Glossary On
Versions: 1 2 3 4 5 6 7 8 9 10 11 12 13 14 15 16 17 18 19 20 21 22 23 24 25 26 27
000
ASUS44 KJAN 260210
RWRMS

MISSISSIPPI HOURLY WEATHER ROUNDUP
NATIONAL WEATHER SERVICE JACKSON MS
900 PM CDT MON SEP 25 2017

NOTE: "FAIR: INDICATES FEW OR NO CLOUDS BELOW 12,000 FEET WITH NO
SIGNIFICANT WEATHER AND/OR OBSTRUCTIONS TO VISIBILITY.

MSZ001>002-007>008-010>013-018>021-025>028-034>036-260300-
NORTHWEST MISSISSIPPI

CITY           SKY/WX    TMP DP  RH WIND       PRES   REMARKS
BATESVILLE     FAIR      72  69  90 CALM      29.94R
CLARKSDALE       N/A     77  72  83 E6        29.93R
CLEVELAND      FAIR      78  67  69 SE6       29.91S
GREENWOOD      CLEAR     72  69  90 CALM      29.92R
GREENVILLE     CLEAR     76  64  66 SE6       29.91R
OXFORD         FAIR      72  68  88 CALM      29.95R
TUNICA           N/A    N/A N/A N/A CALM      29.93R
WINONA         FAIR      71  71 100 CALM      29.92S
$$

MSZ003>006-009-014>017-022>024-029>033-037>039-260300-
NORTHEAST MISSISSIPPI

CITY           SKY/WX    TMP DP  RH WIND       PRES   REMARKS
COLUMBUS AFB   MOCLDY    75  71  88 CALM      29.92R
STARKVILLE     FAIR      72  70  94 CALM      29.95R
TUPELO         CLEAR     76  65  68 CALM      29.94R
$$

MSZ040-058-260300-
CENTRAL MISSISSIPPI

CITY           SKY/WX    TMP DP  RH WIND       PRES   REMARKS
JACKSON INTL   PTCLDY    75  69  81 E5        29.91S
JACKSON HAWKNS CLEAR     76  68  76 E5        29.92R
MADISON        FAIR      73  66  78 CALM      29.92R
MERIDIAN KEY   CLEAR     73  73 100 CALM      29.93R
MERIDIAN NAS   CLEAR     74  71  91 CALM      29.93R
RAYMOND        FAIR      72  70  94 CALM      29.91R
VICKSBURG VKS  CLEAR     77  68  73 E3        29.91R
$$

MSZ059>079-260300-
SOUTH MISSISSIPPI

CITY           SKY/WX    TMP DP  RH WIND       PRES   REMARKS
COLUMBIA       FAIR      72 N/A N/A CALM      29.95R
HATTIESBURG    PTCLDY    73  70  90 CALM      29.92R
LAUREL         FAIR      72  72 100 CALM      29.92R
MCCOMB         CLEAR     76  68  76 CALM      29.90R
NATCHEZ        CLEAR     76  68  76 E6        29.90R
PINE BELT      PTCLDY    71  70  96 CALM      29.93R
$$

MSZ080>082-260300-
COASTAL MISSISSIPPI

CITY           SKY/WX    TMP DP  RH WIND       PRES   REMARKS
BAY ST LOUIS   PTCLDY    73  72  94 VRB5      29.89R
BILOXI         PTCLDY    76  73  93 NE9       29.89R
PASCAGOULA     CLEAR     74  72  93 NE3       29.89R
GULFPORT       MOCLDY    76  75  97 NE7       29.88R
$$

LAZ007>009-015>016-023>026-260300-
NORTHEAST LOUISIANA

CITY           SKY/WX    TMP DP  RH WIND       PRES   REMARKS
BASTROP        FAIR      72  72  99 CALM      29.91R
TALLULAH/VBURG CLEAR     78  69  73 E6        29.90R
VIDALIA          N/A    N/A N/A N/A MISG      29.88R
$$




USA.gov is the U.S. government's official web portal to all federal, state and local government web resources and services.